VK2ADG-1 Weather Reports


Display with metric or nautical units.
time (UTC)temp
F
wind
direction
speed
MPH
gust
MPH
rain 1hr
in
rain 24hr
in
rain mn
in
humidity
%
barometer
mb
20260504081028 53 330 3.0 6.0 0.00 0.06 0.06 94 1015.3
20260504050023 62 292 3.0 8.0 0.02 0.06 0.06 88 1012.8
20260504045021 64 343 4.0 10.0 0.02 0.05 0.05 80 1012.8
20260504044018 65 357 4.0 9.0 0.00 0.03 0.03 75 1012.5
20260504043036 66 335 4.0 13.0 0.00 0.03 0.03 74 1012.7
20260504042054 66 334 3.0 9.0 0.00 0.03 0.03 74 1012.8
20260504041032 67 348 3.0 8.0 0.00 0.03 0.03 73 1012.8
20260504040030 65 350 3.0 10.0 0.00 0.03 0.03 75 1012.7
20260504035027 65 342 6.0 15.0 0.00 0.03 0.03 74 1012.9
20260504034025 66 350 4.0 10.0 0.00 0.03 0.03 73 1012.8
20260504033102 66 347 4.0 9.0 0.00 0.03 0.03 72 1012.8
20260504032019 66 347 4.0 7.0 0.00 0.03 0.03 73 1013.2
20260504031018 66 348 5.0 14.0 0.00 0.03 0.03 73 1013.3
20260504030035 67 350 4.0 10.0 0.00 0.03 0.03 71 1013.3
20260504025033 66 348 5.0 9.0 0.00 0.03 0.03 71 1013.5
20260504024031 67 351 7.0 14.0 0.00 0.03 0.03 70 1013.5
20260504023029 68 334 5.0 9.0 0.00 0.03 0.03 69 1013.6
20260504022026 66 339 5.0 11.0 0.00 0.03 0.03 73 1013.7
20260504021043 66 346 8.0 16.0 0.00 0.03 0.03 72 1014.0
20260504020021 66 346 6.0 13.0 0.00 0.03 0.03 74 1014.2
20260504015018 65 340 5.0 11.0 0.00 0.03 0.03 76 1014.5
20260504014057 64 330 3.0 5.0 0.00 0.03 0.03 79 1014.5
20260504013034 63 332 3.0 6.0 0.00 0.03 0.03 82 1014.9
20260504012031 62 339 4.0 9.0 0.00 0.03 0.03 82 1014.9
20260504011029 62 339 4.0 10.0 0.00 0.03 0.03 81 1015.1
20260504010026 63 323 3.0 7.0 0.00 0.03 0.03 82 1015.0
20260504005024 62 330 2.0 6.0 0.00 0.03 0.03 82 1015.1
20260504004022 62 328 3.0 6.0 0.00 0.03 0.03 83 1014.9
20260504003019 61 344 3.0 6.0 0.00 0.03 0.03 84 1015.1
20260504002017 61 335 4.0 7.0 0.01 0.03 0.03 85 1015.3
20260504001035 61 346 4.0 10.0 0.02 0.03 0.03 84 1015.5
20260504000114 61 346 4.0 6.0 0.02 0.03 0.03 85 1015.4
20260503235030 60 343 4.0 6.0 0.02 0.03 0.03 86 1015.7
20260503234027 60 348 5.0 10.0 0.02 0.03 0.03 87 1015.6
20260503233026 60 345 4.0 9.0 0.02 0.03 0.03 87 1015.9
20260503232023 61 347 4.0 6.0 0.01 0.02 0.02 86 1015.7
20260503231020 60 344 5.0 9.0 0.00 0.02 0.02 87 1016.0
20260503230018 60 344 4.0 7.0 0.00 0.02 0.02 88 1016.1
20260503225036 60 343 4.0 8.0 0.01 0.02 0.02 89 1016.1
20260503224034 60 329 4.0 8.0 0.00 0.01 0.01 87 1016.1
20260503223032 61 329 4.0 9.0 0.00 0.01 0.01 84 1015.9
20260503222029 61 337 4.0 8.0 0.00 0.01 0.01 84 1015.7
20260503221027 61 331 4.0 9.0 0.00 0.01 0.01 84 1015.7
20260503220025 61 330 4.0 9.0 0.00 0.01 0.01 85 1015.6
20260503215022 61 334 5.0 9.0 0.00 0.01 0.01 85 1015.6
20260503214040 61 330 5.0 8.0 0.00 0.01 0.01 85 1015.5
20260503213039 60 332 4.0 6.0 0.00 0.01 0.01 86 1015.4
20260503212158 60 327 5.0 10.0 0.00 0.01 0.01 86 1015.5
20260503211033 60 328 4.0 6.0 0.00 0.01 0.01 88 1015.4
20260503210031 60 337 2.0 4.0 0.00 0.01 0.01 88 1015.2
20260503205027 60 328 3.0 5.0 0.00 0.01 0.01 89 1015.2
20260503204025 60 341 3.0 6.0 0.00 0.01 0.01 89 1015.0
20260503203104 60 344 3.0 6.0 0.00 0.01 0.01 89 1015.0
20260503202021 59 337 3.0 4.0 0.00 0.01 0.01 90 1015.1
20260503201018 59 334 3.0 5.0 0.00 0.01 0.01 90 1015.1
20260503200016 59 321 3.0 6.0 0.00 0.01 0.01 90 1014.9
20260503195055 59 320 3.0 6.0 0.00 0.01 0.01 91 1014.6
20260503194032 58 319 3.0 5.0 0.00 0.01 0.01 93 1014.6
20260503193029 58 326 3.0 5.0 0.00 0.01 0.01 94 1014.7
20260503192027 58 326 3.0 4.0 0.00 0.01 0.01 94 1014.9
20260503191045 57 333 3.0 4.0 0.00 0.00 0.00 96 1015.0
20260503190022 57 330 2.0 4.0 0.00 0.00 0.00 96 1015.2
20260503185019 58 316 3.0 4.0 0.00 0.00 0.00 95 1015.4
20260503184017 58 324 3.0 4.0 0.00 0.00 0.00 95 1015.5
20260503183035 58 331 3.0 4.0 0.00 0.00 0.00 95 1015.5
20260503182032 58 327 2.0 4.0 0.00 0.00 0.00 95 1015.5
20260503181031 58 323 3.0 4.0 0.00 0.00 0.00 96 1015.6
20260503180028 58 323 2.0 4.0 0.00 0.00 0.00 95 1015.6
20260503175025 58 322 2.0 4.0 0.00 0.00 0.00 95 1015.7
20260503174023 58 317 2.0 3.0 0.00 0.00 0.00 95 1015.8
20260503173021 58 322 3.0 4.0 0.00 0.00 0.00 95 1015.8
20260503172019 58 314 3.0 4.0 0.00 0.00 0.00 94 1015.9
20260503171015 58 313 3.0 5.0 0.00 0.00 0.00 94 1016.1
20260503131020 60 331 3.0 4.0 0.00 0.00 0.00 88 1017.1